カタログに戻る

USA 360

運用中軍事VLEO
NORAD 59820·PAYLOAD·🇺🇸 United States

打ち上げ May 22, 2024 から Vandenberg Space Force Base

Loading…

次のパス (今後24時間)

TLE

古いSource: Mike McCants

元期: Aug 12, 2026, 23:15 UTC

1 59820U 24096G   26224.96888661 0.00000000  00000-0  00000-0 0    06
2 59820  70.0200 169.5097 0004000 152.1900 207.8100 14.96713160    00

AllMySatでUSA 360をリアルタイム追跡

Download on the App Store